[[{"header":{"parameterUnit":"m.s-1","parameterCategory":2,"la1":30.2991,"la2":30.254,"lo1":-89.0895,"lo2":-89.0444,"dy":0.0017,"dx":0.0017,"nx":28,"ny":28,"refTime":"2024-08-28T09:00:00:Z","depth":"0","parameterNumber":2,"parameterNumberName":"U-component_of_CURRENTS"},"data":[0,0,0,0,0,0,0,0,0,0,0,0,0,0,0,0,0,0,0,0,0,0,0,0,0,0,0,0,0,0,0,0,0,0,0,0,0,0,0,0,0,0,0,0,0,0,0,0,0,0,0,0,0,0,0,0,0,0,0.2014,0.2014,0,0.1921,0.1919,0.1918,0.1836,0.1836,0.1836,0.1836,0.1724,0.1721,0.1718,0,0,0,0,0,0,0,0,0,0,0,0,0,0.2128,0.2126,0.2014,0.2014,0.2014,0.1922,0.1919,0.1917,0.1836,0.1836,0.1836,0.1836,0.1725,0.1721,0.1718,0,0,0,0,0,0,0,0,0,0,0,0,0,0.2052,0.2125,0.2014,0.1969,0.1965,0.1922,0.1919,0.1917,0.1836,0.1836,0.1836,0.1836,0.1726,0.1722,0.1717,0.1691,0,0,0.1704,0.1702,0,0,0,0,0,0,0,0,0.2057,0.2047,0.1976,0.1972,0.1968,0.1899,0.1919,0.1844,0.1836,0.1875,0.1836,0.1836,0.1787,0.1778,0.1747,0.1686,0.1681,0.1704,0.1701,0.1699,0.1698,0,0,0,0,0,0,0,0.2062,0.2051,0.1967,0.1976,0.1971,0.1957,0.1945,0.1904,0.1824,0.1871,0.1868,0.1873,0.1783,0.1751,0.1744,0.168,0.1704,0.17,0.1697,0.1695,0.1674,0.1676,0,0,0,0,0,0,0.2092,0.2055,0.1971,0.1966,0.2024,0.1956,0.1942,0.1913,0.1825,0.1815,0.1873,0.187,0.1759,0.1749,0.1739,0.1763,0.1699,0.1695,0.1692,0.1672,0.1674,0.1676,0,0,0,0,0,0,0.2094,0.2084,0.1974,0.2019,0.2005,0.1955,0.1923,0.1911,0.1895,0.1829,0.1816,0.1872,0.1758,0.1746,0.1721,0.1756,0.1693,0.1689,0.1669,0.1672,0.1675,0.1772,0,0,0,0,0,0,0.2097,0.2084,0.2078,0.2019,0.2004,0.1969,0.1923,0.191,0.1902,0.1896,0.1823,0.1811,0.1757,0.1728,0.1717,0.1749,0.1685,0.1666,0.1671,0.1674,0.1766,0.1778,0.1788,0,0,0,0,0,0.2101,0.2096,0.2077,0.2068,0.1993,0.1971,0.196,0.1919,0.1903,0.1901,0.1854,0.1814,0.1746,0.1726,0.1712,0.1743,0.1665,0.1669,0.1674,0.1761,0.1776,0.1788,0,0,0,0,0,0,0.2146,0.2087,0.2064,0.2041,0.202,0.1961,0.1958,0.1936,0.1894,0.189,0.1822,0.1808,0.1806,0.1765,0.1745,0.1754,0.1706,0.1708,0.1777,0.179,0.1801,0.183,0.1682,0,0,0,0,0,0.2154,0.2133,0.2085,0.2075,0.2061,0.2013,0.2002,0.1978,0.1938,0.1919,0.1872,0.1833,0.1812,0.1794,0.1762,0.1753,0.175,0.1773,0.1784,0.1794,0.1811,0.185,0.1866,0.1692,0.1692,0.1691,0,0,0.2177,0.2142,0.2133,0.2085,0.2055,0.2042,0.2003,0.1995,0.1996,0.1915,0.1898,0.1867,0.182,0.1815,0.1812,0.1784,0.1841,0.1799,0.1807,0.182,0.1857,0.1874,0.1889,0.1695,0.1694,0.1694,0,0,0.2205,0.217,0.2155,0.2137,0.211,0.2083,0.2092,0.2044,0.2032,0.2017,0.1973,0.1973,0.1913,0.19,0.1883,0.1941,0.1902,0.193,0.1998,0.2036,0.2051,0.2064,0.2078,0.2092,0.1931,0.1931,0.1931,0,0.2229,0.2196,0.2158,0.214,0.2135,0.2109,0.2104,0.2093,0.2052,0.2053,0.2031,0.1992,0.1962,0.197,0.1996,0.1968,0.1969,0.1946,0.2051,0.2064,0.2075,0.2087,0.2101,0.1936,0.1935,0.1935,0.1934,0,0.2236,0.2218,0.2215,0.2175,0.2172,0.2171,0.2154,0.2159,0.2149,0.2135,0.2147,0.211,0.2087,0.2091,0.2058,0.2125,0.2092,0.2064,0.2017,0.2099,0.2106,0.2118,0.1943,0.1942,0.194,0.1939,0,0,0.2249,0.222,0.2217,0.2206,0.219,0.2182,0.2209,0.2212,0.2228,0.222,0.2237,0.2238,0.2223,0.2208,0.2176,0.2218,0.2309,0.2183,0.2182,0.2197,0.2379,0.2231,0.2229,0.2293,0.2296,0.2299,0.2349,0,0.2257,0.2235,0.2226,0.2231,0.2216,0.2219,0.224,0.2254,0.2262,0.2276,0.2285,0.2284,0.2264,0.2256,0.2302,0.23,0.2346,0.2297,0.2298,0.2298,0.2157,0.2241,0.2058,0.2076,0.2361,0.2363,0.2364,0,0.2249,0.2237,0.2231,0.2238,0.2233,0.2243,0.227,0.2287,0.2323,0.233,0.2353,0.2344,0.2398,0.237,0.2438,0.2402,0.2413,0.2419,0.242,0.2258,0.2174,0.2042,0.2088,0.1987,0.2383,0.2382,0.238,0,0.2249,0.2241,0.2238,0.2236,0.2241,0.2255,0.2269,0.2302,0.2321,0.2366,0.2382,0.2427,0.2441,0.2485,0.2496,0.2476,0.2565,0.2529,0.241,0.2398,0.2231,0.2199,0.2177,0.2605,0.2605,0.2605,0.2605,0,0.2244,0.2242,0.2235,0.223,0.2244,0.2251,0.2281,0.2304,0.2342,0.2373,0.2403,0.2431,0.2477,0.2515,0.2531,0.25,0.2592,0.2443,0.2412,0.2256,0.2227,0.2118,0.2102,0.2607,0.2606,0.2606,0.2605,0,0.2236,0.2229,0.2224,0.2231,0.2237,0.2245,0.2279,0.2302,0.2339,0.2383,0.2401,0.2455,0.2486,0.2509,0.257,0.2515,0.2414,0.2488,0.2285,0.2228,0.1968,0.1963,0.1869,0.1832,0.2354,0.2351,0.2348,0,0.2218,0.2214,0.222,0.2218,0.222,0.2237,0.2255,0.2296,0.2324,0.2393,0.2414,0.2453,0.2469,0.2469,0.2378,0.2343,0.231,0.2147,0.2074,0.1943,0.1918,0.187,0.1845,0.1902,0.1896,0.1891,0.1887,0,0.2192,0.2199,0.2197,0.2199,0.2208,0.2231,0.226,0.2281,0.2337,0.2361,0.2398,0.2417,0.2363,0.2216,0.213,0.2086,0.1977,0.2037,0.1972,0.1624,0.1503,0.1453,0.1876,0.1842,0.1846,0.185,0.1852,0.1854,0.2162,0.2166,0.2166,0.2163,0.2184,0.2212,0.2207,0.2238,0.2262,0.225,0.2336,0.2255,0.2079,0.19,0.185,0.154,0.1657,0.1424,0.1452,0.1433,0.1321,0.1624,0.15,0.1502,0.1504,0.1506,0.1508,0,0.2103,0.212,0.2128,0.2121,0.2126,0.2159,0.2193,0.2159,0.2143,0.2116,0.2104,0.1839,0.1631,0.1452,0.1109,0.0977,0.0962,0.0922,0.0841,0.087,0.1185,0.1084,0.0775,0.0775,0.0775,0.0775,0.0775,0.0776,0.2062,0.2055,0.2067,0.2048,0.2055,0.2035,0.2038,0.199,0.1941,0.1744,0.1537,0.1449,0.1204,0.085,0.0576,0.0552,0.0532,0.0421,0.0544,0.0762,0.0812,0.086,0.076,0.0388,0.0387,0.0137,0.0135,0.0133]},{"header":{"parameterUnit":"m.s-1","parameterCategory":2,"la1":30.2991,"la2":30.254,"lo1":-89.0895,"lo2":-89.0444,"dy":0.0017,"dx":0.0017,"nx":28,"ny":28,"refTime":"2024-08-28T09:00:00:Z","depth":"0","parameterNumber":3,"parameterNumberName":"V-component_of_CURRENTS"},"data":[0,0,0,0,0,0,0,0,0,0,0,0,0,0,0,0,0,0,0,0,0,0,0,0,0,0,0,0,0,0,0,0,0,0,0,0,0,0,0,0,0,0,0,0,0,0,0,0,0,0,0,0,0,0,0,0,0,0,0.0156,0.0156,0,0.0159,0.0159,0.0159,0.0151,0.0151,0.0151,0.0151,0.018,0.018,0.0181,0,0,0,0,0,0,0,0,0,0,0,0,0,0.0142,0.0142,0.0156,0.0156,0.0156,0.0159,0.0159,0.0159,0.0151,0.0151,0.0151,0.015,0.0179,0.018,0.0181,0,0,0,0,0,0,0,0,0,0,0,0,0,0.0145,0.0142,0.0156,0.0153,0.0153,0.0159,0.0159,0.0158,0.0151,0.0151,0.0151,0.015,0.0179,0.018,0.0182,0.0194,0,0,0.0186,0.0186,0,0,0,0,0,0,0,0,0.0145,0.0146,0.0154,0.0154,0.0153,0.0155,0.0164,0.0172,0.0151,0.0151,0.0151,0.015,0.0175,0.0176,0.0175,0.0195,0.0196,0.0186,0.0187,0.0187,0.0188,0,0,0,0,0,0,0,0.0145,0.0146,0.0156,0.0154,0.0154,0.0152,0.0152,0.0165,0.0163,0.0151,0.015,0.0153,0.0175,0.0174,0.0176,0.0197,0.0186,0.0187,0.0188,0.0188,0.023,0.023,0,0,0,0,0,0,0.0147,0.0145,0.0156,0.0156,0.015,0.0152,0.0152,0.0154,0.0163,0.0164,0.0153,0.0152,0.0172,0.0175,0.0177,0.0204,0.0187,0.0188,0.0189,0.023,0.023,0.023,0,0,0,0,0,0,0.0147,0.0148,0.0156,0.0152,0.0153,0.0153,0.0155,0.0154,0.0153,0.0164,0.0166,0.0152,0.0172,0.0175,0.019,0.0205,0.0189,0.019,0.0229,0.023,0.023,0.025,0,0,0,0,0,0,0.0146,0.0148,0.0148,0.0152,0.0153,0.0162,0.0155,0.0154,0.0155,0.0154,0.0164,0.0166,0.0172,0.0188,0.0192,0.0206,0.0191,0.0229,0.0229,0.023,0.0249,0.0251,0.0253,0,0,0,0,0,0.0146,0.0148,0.0148,0.0149,0.0153,0.0163,0.0163,0.0162,0.0155,0.0158,0.0163,0.0166,0.0194,0.019,0.0193,0.0209,0.0229,0.0229,0.023,0.0248,0.0251,0.0253,0,0,0,0,0,0,0.0139,0.0148,0.0147,0.0151,0.0158,0.0162,0.0165,0.0162,0.0167,0.0168,0.0171,0.0175,0.0193,0.0196,0.0191,0.0221,0.0211,0.0213,0.0224,0.0227,0.0228,0.0253,0.0192,0,0,0,0,0,0.0139,0.0145,0.0152,0.0155,0.016,0.0162,0.0164,0.0165,0.0171,0.0172,0.0177,0.0185,0.0199,0.0208,0.0218,0.0237,0.0253,0.0248,0.025,0.0252,0.0274,0.0309,0.0317,0.0232,0.0232,0.0232,0,0,0.0139,0.0143,0.0147,0.0155,0.016,0.0175,0.0162,0.0171,0.0185,0.0177,0.0193,0.0193,0.0204,0.0224,0.0233,0.0229,0.0279,0.0252,0.0254,0.0276,0.0311,0.0319,0.0327,0.0233,0.0233,0.0233,0,0,0.0148,0.0146,0.0158,0.0166,0.0177,0.0182,0.0185,0.0192,0.0195,0.021,0.0208,0.0221,0.0233,0.025,0.0259,0.0279,0.0287,0.0272,0.0308,0.0341,0.0349,0.0356,0.037,0.0378,0.0275,0.0275,0.0275,0,0.0147,0.0165,0.0163,0.0179,0.0192,0.0188,0.021,0.0214,0.0223,0.0237,0.022,0.0251,0.0252,0.0293,0.0295,0.0288,0.0299,0.0297,0.0346,0.0353,0.036,0.0373,0.0382,0.0276,0.0276,0.0276,0.0276,0,0.0172,0.0185,0.0194,0.0216,0.0227,0.0245,0.0257,0.0267,0.0266,0.0275,0.0304,0.0304,0.0328,0.0321,0.0315,0.0364,0.0351,0.0343,0.0343,0.037,0.0381,0.039,0.0278,0.0278,0.0277,0.0277,0,0,0.0174,0.0206,0.0209,0.0231,0.0251,0.0266,0.0293,0.0324,0.035,0.035,0.0389,0.0398,0.0396,0.0407,0.0398,0.0422,0.0464,0.0403,0.0405,0.0423,0.0528,0.0501,0.0507,0.0463,0.0465,0.0466,0.0509,0,0.0197,0.0236,0.0246,0.0289,0.0315,0.0325,0.0353,0.0378,0.0392,0.0425,0.0434,0.0463,0.0429,0.0441,0.0461,0.0475,0.0492,0.0453,0.0494,0.0496,0.0474,0.0519,0.0527,0.0565,0.0517,0.0519,0.052,0,0.0221,0.0247,0.0293,0.0339,0.0351,0.0373,0.0425,0.0449,0.0491,0.0504,0.0533,0.0537,0.0581,0.0538,0.0588,0.0564,0.0551,0.0548,0.055,0.0532,0.0487,0.0533,0.0583,0.0564,0.0534,0.0533,0.0532,0,0.0235,0.0281,0.032,0.0336,0.0384,0.0409,0.0433,0.0475,0.0506,0.0558,0.0589,0.0629,0.0662,0.0667,0.0661,0.0631,0.0708,0.0664,0.0624,0.0621,0.0642,0.0638,0.069,0.0695,0.0695,0.0694,0.0694,0,0.0259,0.0291,0.033,0.0353,0.0405,0.0428,0.0483,0.0512,0.0562,0.0616,0.063,0.0691,0.0698,0.0734,0.0706,0.0709,0.0747,0.0653,0.0644,0.0645,0.064,0.0635,0.0619,0.0696,0.0696,0.0695,0.0695,0,0.0269,0.0296,0.0343,0.0395,0.0413,0.0448,0.0506,0.0545,0.059,0.0663,0.0686,0.0759,0.0822,0.0811,0.0838,0.0775,0.0767,0.0751,0.0742,0.073,0.0648,0.0633,0.0697,0.0702,0.0716,0.0715,0.0715,0,0.0282,0.0308,0.0364,0.0392,0.0416,0.0467,0.0504,0.0555,0.0597,0.0714,0.0755,0.0842,0.0931,0.0957,0.0885,0.0844,0.0802,0.077,0.0709,0.067,0.0646,0.0639,0.0639,0.0738,0.0738,0.0738,0.0738,0,0.0306,0.032,0.0352,0.0406,0.0449,0.05,0.0554,0.0594,0.0668,0.075,0.0884,0.0978,0.102,0.1028,0.0947,0.0889,0.077,0.0765,0.075,0.0699,0.0676,0.0668,0.0665,0.0738,0.0738,0.0738,0.0738,0.0738,0.0317,0.0337,0.0374,0.0423,0.0471,0.0529,0.0575,0.065,0.0746,0.0897,0.0976,0.1135,0.1119,0.1043,0.0968,0.0785,0.0788,0.071,0.0702,0.0704,0.0695,0.0677,0.0719,0.0719,0.0719,0.0719,0.0718,0,0.0336,0.0355,0.0394,0.0453,0.0498,0.0525,0.0608,0.0671,0.0798,0.0976,0.1124,0.1195,0.1168,0.1065,0.0844,0.0744,0.0713,0.0686,0.0693,0.07,0.0713,0.0697,0.0707,0.0707,0.0707,0.0707,0.0707,0.0707,0.0349,0.0379,0.0393,0.0464,0.0505,0.0573,0.0621,0.0743,0.0873,0.1081,0.1186,0.127,0.1178,0.0946,0.0769,0.0717,0.069,0.0664,0.0657,0.0663,0.0665,0.0667,0.0649,0.0649,0.0649,0.0662,0.0662,0.0662]}],[{"header":{"parameterUnit":"m.s-1","parameterCategory":2,"la1":30.2991,"la2":30.254,"lo1":-89.0895,"lo2":-89.0444,"dy":0.0017,"dx":0.0017,"nx":28,"ny":28,"refTime":"2024-08-28T09:00:00:Z","depth":"2","parameterNumber":2,"parameterNumberName":"U-component_of_CURRENTS"},"data":[0,0,0,0,0,0,0,0,0,0,0,0,0,0,0,0,0,0,0,0,0,0,0,0,0,0,0,0,0,0,0,0,0,0,0,0,0,0,0,0,0,0,0,0,0,0,0,0,0,0,0,0,0,0,0,0,0,0,0.1349,0.1349,0,0.1356,0.1357,0.1358,0.1404,0.1404,0.1404,0.1404,0.1397,0.1396,0.1396,0,0,0,0,0,0,0,0,0,0,0,0,0,0.1404,0.1404,0.1349,0.1349,0.1348,0.1356,0.1357,0.1358,0.1404,0.1404,0.1404,0.1405,0.1397,0.1396,0.1396,0,0,0,0,0,0,0,0,0,0,0,0,0,0.1401,0.1403,0.1349,0.1365,0.1366,0.1356,0.1357,0.1358,0.1404,0.1404,0.1404,0.1405,0.1397,0.1396,0.1396,0.1383,0,0,0.1393,0.1393,0,0,0,0,0,0,0,0,0.1401,0.1401,0.1363,0.1364,0.1364,0.1371,0.1373,0.1363,0.1403,0.1399,0.1404,0.1405,0.138,0.1381,0.1395,0.1383,0.1383,0.1393,0.1393,0.1393,0.1392,0,0,0,0,0,0,0,0.1402,0.14,0.1362,0.1362,0.1363,0.138,0.1381,0.1372,0.1394,0.1399,0.14,0.1386,0.1382,0.1396,0.1395,0.1382,0.1393,0.1393,0.1392,0.1392,0.1428,0.1429,0,0,0,0,0,0,0.138,0.14,0.1361,0.1361,0.1374,0.1378,0.1379,0.1376,0.1395,0.1395,0.1386,0.1388,0.1397,0.1396,0.1395,0.1433,0.1393,0.1392,0.1392,0.1427,0.1428,0.143,0,0,0,0,0,0,0.1381,0.1377,0.1361,0.1373,0.1371,0.1375,0.1372,0.1376,0.1399,0.1383,0.1385,0.1405,0.1397,0.1396,0.1407,0.1431,0.1392,0.1391,0.1425,0.1427,0.1429,0.1476,0,0,0,0,0,0,0.1383,0.1378,0.139,0.1371,0.1369,0.1372,0.1371,0.1375,0.1384,0.1388,0.1399,0.1399,0.1397,0.1408,0.1406,0.1429,0.1391,0.1423,0.1426,0.1429,0.1473,0.148,0.1485,0,0,0,0,0,0.1385,0.1392,0.1391,0.1386,0.1379,0.1372,0.1375,0.1385,0.1385,0.1407,0.1412,0.1399,0.1424,0.1408,0.1406,0.1429,0.1422,0.1425,0.1428,0.147,0.1478,0.1485,0,0,0,0,0,0,0.1414,0.1395,0.1395,0.1394,0.139,0.1377,0.139,0.1389,0.1412,0.1417,0.1408,0.1409,0.1432,0.1422,0.1406,0.145,0.1424,0.1426,0.1456,0.1464,0.147,0.1476,0.139,0,0,0,0,0,0.1423,0.1426,0.1409,0.1405,0.1407,0.1401,0.1403,0.1408,0.1408,0.1421,0.1425,0.1432,0.1441,0.1445,0.1454,0.1466,0.1471,0.1484,0.149,0.1495,0.1501,0.1536,0.1546,0.144,0.144,0.144,0,0,0.1423,0.1415,0.1414,0.1412,0.1411,0.1412,0.1408,0.1412,0.1422,0.1412,0.1442,0.1452,0.145,0.1478,0.1487,0.1472,0.1528,0.1499,0.1503,0.1506,0.154,0.155,0.1559,0.1442,0.1442,0.1441,0,0,0.1422,0.1428,0.1436,0.1438,0.1435,0.143,0.1431,0.1434,0.1456,0.147,0.1476,0.1505,0.1504,0.1528,0.153,0.1573,0.1561,0.1573,0.1606,0.1641,0.165,0.1657,0.1678,0.1687,0.1575,0.1575,0.1575,0,0.1434,0.143,0.1436,0.1444,0.1445,0.1435,0.1445,0.1458,0.1467,0.1486,0.1485,0.1527,0.1532,0.1569,0.1594,0.1588,0.1597,0.1575,0.1649,0.1656,0.1664,0.1682,0.1692,0.1577,0.1577,0.1577,0.1576,0,0.1432,0.1439,0.1441,0.1448,0.1461,0.1461,0.147,0.1491,0.1501,0.1513,0.1563,0.1586,0.1613,0.1624,0.1618,0.1678,0.1665,0.1653,0.1628,0.1677,0.1694,0.1703,0.1581,0.158,0.1579,0.1579,0,0,0.1433,0.1442,0.1445,0.145,0.1467,0.1467,0.1494,0.1516,0.1526,0.1567,0.1605,0.1648,0.1671,0.1679,0.1694,0.1727,0.1792,0.1714,0.1715,0.1731,0.186,0.174,0.1738,0.1791,0.1792,0.1794,0.1851,0,0.1433,0.1445,0.1458,0.1465,0.147,0.1487,0.1503,0.1529,0.1552,0.1589,0.1643,0.1679,0.1687,0.1712,0.1753,0.1778,0.1818,0.1777,0.1813,0.1814,0.1699,0.1746,0.1574,0.16,0.186,0.1862,0.1863,0,0.1429,0.144,0.1459,0.1469,0.1476,0.1482,0.1513,0.1535,0.1585,0.1613,0.1674,0.1702,0.1779,0.1774,0.1858,0.1829,0.1856,0.1873,0.1875,0.1752,0.171,0.1594,0.1607,0.1878,0.1876,0.1875,0.1874,0,0.1418,0.1433,0.1449,0.1455,0.1472,0.1492,0.1509,0.1547,0.1577,0.1646,0.167,0.1749,0.1806,0.1851,0.189,0.1881,0.1965,0.1953,0.1876,0.1868,0.1721,0.1695,0.2022,0.2022,0.2022,0.2022,0.2021,0,0.1402,0.1412,0.144,0.1448,0.1456,0.1491,0.1512,0.1537,0.1599,0.1625,0.1695,0.1729,0.1829,0.1879,0.1907,0.191,0.1983,0.1889,0.1877,0.1731,0.1707,0.1943,0.1933,0.2024,0.2023,0.2023,0.2022,0,0.1371,0.1398,0.1412,0.1444,0.145,0.1466,0.151,0.1521,0.1583,0.1629,0.1659,0.1749,0.18,0.1866,0.1945,0.192,0.1937,0.1924,0.1735,0.1698,0.1815,0.1807,0.1843,0.1839,0.1836,0.1833,0.1831,0,0.1351,0.1354,0.1398,0.1413,0.1427,0.1452,0.1458,0.1515,0.1527,0.1616,0.1628,0.1716,0.1735,0.1797,0.1777,0.1789,0.1884,0.1631,0.1575,0.1814,0.1799,0.1796,0.1793,0.1414,0.1409,0.1404,0.1401,0,0.1304,0.133,0.1346,0.1376,0.1394,0.1408,0.1425,0.1415,0.1475,0.1519,0.1564,0.1598,0.1629,0.1556,0.1559,0.154,0.1605,0.1536,0.1857,0.1466,0.1408,0.1394,0.1405,0.1361,0.1365,0.1368,0.137,0.1372,0.1269,0.1272,0.1304,0.1322,0.1354,0.1354,0.1333,0.1327,0.1343,0.1342,0.1431,0.1419,0.1419,0.1322,0.1269,0.1226,0.1357,0.1293,0.1309,0.1328,0.1248,0.1185,0.1082,0.1085,0.1087,0.1088,0.109,0,0.1213,0.1227,0.1241,0.1269,0.1276,0.1324,0.1301,0.1245,0.1201,0.1202,0.1222,0.1094,0.102,0.104,0.0899,0.0866,0.0875,0.0832,0.0846,0.0885,0.0919,0.082,0.054,0.0539,0.0538,0.0536,0,0,0.1193,0.1182,0.1187,0.1183,0.1209,0.1193,0.1172,0.107,0.1031,0.0947,0.092,0.0971,0.0999,0.0772,0.0717,0.0615,0.0752,0.0573,0.1011,0.1067,0.1101,0.1175,0.1062,0,0,0,0,0]},{"header":{"parameterUnit":"m.s-1","parameterCategory":2,"la1":30.2991,"la2":30.254,"lo1":-89.0895,"lo2":-89.0444,"dy":0.0017,"dx":0.0017,"nx":28,"ny":28,"refTime":"2024-08-28T09:00:00:Z","depth":"2","parameterNumber":3,"parameterNumberName":"V-component_of_CURRENTS"},"data":[0,0,0,0,0,0,0,0,0,0,0,0,0,0,0,0,0,0,0,0,0,0,0,0,0,0,0,0,0,0,0,0,0,0,0,0,0,0,0,0,0,0,0,0,0,0,0,0,0,0,0,0,0,0,0,0,0,0,0.0102,0.0103,0,0.0107,0.0107,0.0107,0.01,0.01,0.01,0.01,0.0132,0.0133,0.0134,0,0,0,0,0,0,0,0,0,0,0,0,0,0.0077,0.0077,0.0102,0.0103,0.0103,0.0107,0.0107,0.0107,0.01,0.01,0.01,0.01,0.0132,0.0133,0.0134,0,0,0,0,0,0,0,0,0,0,0,0,0,0.0084,0.0077,0.0102,0.0101,0.0101,0.0107,0.0107,0.0107,0.01,0.01,0.01,0.01,0.0132,0.0133,0.0134,0.0148,0,0,0.0139,0.014,0,0,0,0,0,0,0,0,0.0084,0.0085,0.0101,0.0101,0.0101,0.0104,0.011,0.0123,0.0101,0.0099,0.01,0.01,0.0126,0.0128,0.0128,0.0149,0.0151,0.0139,0.014,0.0141,0.0141,0,0,0,0,0,0,0,0.0083,0.0085,0.0103,0.0101,0.0101,0.0096,0.0097,0.0112,0.0113,0.0099,0.0099,0.0102,0.0126,0.0126,0.0128,0.0151,0.0139,0.014,0.0141,0.0142,0.018,0.018,0,0,0,0,0,0,0.0086,0.0085,0.0103,0.0103,0.0093,0.0097,0.0098,0.0102,0.0113,0.0114,0.0102,0.0101,0.0124,0.0127,0.013,0.0149,0.0141,0.0142,0.0143,0.018,0.018,0.018,0,0,0,0,0,0,0.0086,0.0088,0.0103,0.0095,0.0097,0.0098,0.0103,0.0103,0.0101,0.0115,0.0116,0.01,0.0124,0.0127,0.0142,0.015,0.0143,0.0144,0.018,0.018,0.018,0.0187,0,0,0,0,0,0,0.0085,0.0088,0.0087,0.0095,0.0097,0.0107,0.0103,0.0103,0.0103,0.0103,0.0114,0.0117,0.0124,0.014,0.0143,0.0152,0.0145,0.018,0.018,0.018,0.0186,0.0187,0.0188,0,0,0,0,0,0.0084,0.0087,0.0087,0.0089,0.0098,0.0107,0.0108,0.0107,0.0103,0.0104,0.0111,0.0116,0.0144,0.0141,0.0145,0.0155,0.018,0.018,0.018,0.0186,0.0187,0.0188,0,0,0,0,0,0,0.0074,0.0087,0.0087,0.0093,0.01,0.0107,0.0107,0.0107,0.0112,0.0112,0.0121,0.0124,0.0139,0.0145,0.0142,0.0165,0.0162,0.0163,0.0165,0.0166,0.0166,0.0179,0.0146,0,0,0,0,0,0.0073,0.0079,0.0089,0.0094,0.0097,0.0102,0.0104,0.0105,0.0113,0.0114,0.0121,0.0131,0.0144,0.0153,0.0163,0.0179,0.0185,0.0187,0.0188,0.0188,0.0201,0.0212,0.0215,0.0181,0.0181,0.0181,0,0,0.0071,0.0078,0.0081,0.0092,0.0097,0.011,0.0102,0.0108,0.012,0.0119,0.0132,0.0135,0.0148,0.0164,0.0171,0.017,0.0198,0.0189,0.0189,0.0202,0.0212,0.0216,0.0218,0.0182,0.0182,0.0182,0,0,0.0076,0.0077,0.0086,0.0094,0.0104,0.0111,0.0113,0.0121,0.0123,0.0136,0.0138,0.0147,0.0164,0.0176,0.0185,0.0197,0.0201,0.0195,0.0214,0.0223,0.0226,0.0229,0.0231,0.0234,0.0197,0.0197,0.0197,0,0.0072,0.0089,0.0089,0.0102,0.0114,0.0114,0.0131,0.0135,0.0145,0.0154,0.0143,0.0169,0.0173,0.0204,0.0203,0.0201,0.0202,0.0209,0.0225,0.0228,0.0231,0.0232,0.0235,0.0197,0.0197,0.0197,0.0197,0,0.0089,0.0101,0.0108,0.0129,0.0138,0.0153,0.0163,0.0171,0.0172,0.0178,0.0198,0.0199,0.0219,0.0214,0.0213,0.0236,0.0228,0.0223,0.0224,0.0234,0.0235,0.0238,0.0198,0.0198,0.0198,0.0198,0,0,0.0089,0.0116,0.0119,0.0137,0.0156,0.0169,0.0189,0.0213,0.0233,0.023,0.0257,0.0262,0.0258,0.0268,0.0264,0.0267,0.0276,0.0252,0.0252,0.0256,0.0291,0.0274,0.0276,0.027,0.0271,0.0271,0.028,0,0.0106,0.0139,0.0148,0.0183,0.0205,0.0214,0.0237,0.0255,0.0264,0.0286,0.0286,0.0307,0.0281,0.029,0.0289,0.0288,0.0286,0.0274,0.0279,0.028,0.0265,0.028,0.0285,0.0293,0.0283,0.0284,0.0284,0,0.0126,0.0148,0.0184,0.0224,0.0234,0.0253,0.0295,0.0314,0.034,0.0348,0.0362,0.0361,0.0376,0.0345,0.0348,0.034,0.0318,0.0305,0.0305,0.0294,0.0269,0.0283,0.0299,0.029,0.0289,0.0289,0.0288,0,0.0138,0.0176,0.0208,0.0221,0.0262,0.0281,0.0303,0.0332,0.036,0.0388,0.0416,0.042,0.0441,0.0414,0.0385,0.0369,0.0382,0.0357,0.0319,0.0317,0.0327,0.0325,0.0354,0.0354,0.0354,0.0354,0.0354,0,0.016,0.0187,0.0217,0.0235,0.028,0.0298,0.0346,0.0367,0.0406,0.0458,0.0449,0.0496,0.0459,0.0461,0.0412,0.0384,0.0404,0.0332,0.0324,0.0327,0.0325,0.0328,0.0325,0.0354,0.0354,0.0354,0.0354,0,0.0172,0.0191,0.0229,0.027,0.0287,0.0317,0.0375,0.0413,0.0446,0.0514,0.053,0.0563,0.0573,0.0524,0.0495,0.0434,0.0395,0.0374,0.0375,0.0367,0.0313,0.0311,0.0336,0.0335,0.0335,0.0335,0.0335,0,0.0184,0.0206,0.0249,0.0275,0.0296,0.0343,0.0386,0.0428,0.0479,0.0566,0.0612,0.0639,0.0678,0.0621,0.0524,0.044,0.0417,0.0369,0.0335,0.0325,0.0315,0.0312,0.031,0.0347,0.0347,0.0347,0.0346,0,0.0209,0.0218,0.0243,0.0295,0.0339,0.0397,0.0461,0.0518,0.059,0.0654,0.0756,0.079,0.0744,0.0677,0.0543,0.0474,0.038,0.0363,0.0374,0.0345,0.0335,0.0324,0.0322,0.0346,0.0346,0.0346,0.0346,0.0346,0.022,0.024,0.027,0.0321,0.0373,0.0458,0.0517,0.0611,0.0711,0.0825,0.0846,0.0878,0.0789,0.0621,0.0521,0.039,0.0393,0.0327,0.0328,0.0329,0.0323,0.0312,0.0317,0.0317,0.0317,0.0317,0.0317,0,0.0241,0.0264,0.0304,0.0367,0.0426,0.0451,0.0572,0.0652,0.0793,0.0863,0.0936,0.0825,0.0751,0.0632,0.045,0.0347,0.0332,0.0298,0.031,0.0312,0.0313,0.0307,0.0297,0.0297,0.0296,0.0296,0,0,0.0254,0.0287,0.0307,0.04,0.0449,0.0539,0.0613,0.0752,0.0826,0.0909,0.0898,0.0896,0.0761,0.0618,0.0498,0.0401,0.037,0.0368,0.0395,0.0426,0.0428,0.0341,0.0334,0,0,0,0,0]}],[{"header":{"parameterUnit":"m.s-1","parameterCategory":2,"la1":30.2991,"la2":30.254,"lo1":-89.0895,"lo2":-89.0444,"dy":0.0017,"dx":0.0017,"nx":28,"ny":28,"refTime":"2024-08-28T09:00:00:Z","depth":"4","parameterNumber":2,"parameterNumberName":"U-component_of_CURRENTS"},"data":[0,0,0,0,0,0,0,0,0,0,0,0,0,0,0,0,0,0,0,0,0,0,0,0,0,0,0,0,0,0,0,0,0,0,0,0,0,0,0,0,0,0,0,0,0,0,0,0,0,0,0,0,0,0,0,0,0,0,0.0627,0.0628,0,0.0652,0.0653,0.0653,0.0688,0.0688,0.0689,0.0689,0.0746,0.0747,0.0748,0,0,0,0,0,0,0,0,0,0,0,0,0,0.0611,0.0611,0.0627,0.0628,0.0628,0.0652,0.0653,0.0653,0.0688,0.0688,0.0689,0.069,0.0746,0.0747,0.0749,0,0,0,0,0,0,0,0,0,0,0,0,0,0.0626,0.0611,0.0627,0.0648,0.065,0.0652,0.0653,0.0653,0.0688,0.0688,0.0689,0.069,0.0746,0.0747,0.0749,0.0742,0,0,0.0753,0.0754,0,0,0,0,0,0,0,0,0.0625,0.0626,0.0645,0.0646,0.0649,0.0667,0.0668,0.0684,0.0687,0.0674,0.0689,0.069,0.0722,0.0725,0.0729,0.0744,0.0747,0.0753,0.0754,0.0755,0.0755,0,0,0,0,0,0,0,0.0624,0.0626,0.0638,0.0645,0.0647,0.0656,0.0659,0.0671,0.0694,0.0675,0.0678,0.0679,0.0724,0.0727,0.073,0.0748,0.0753,0.0755,0.0756,0.0756,0.0828,0.0829,0,0,0,0,0,0,0.0619,0.0624,0.0637,0.0639,0.0638,0.0656,0.0659,0.0661,0.0693,0.0699,0.0678,0.0681,0.0724,0.0729,0.0733,0.0783,0.0755,0.0756,0.0757,0.0827,0.0829,0.083,0,0,0,0,0,0,0.0618,0.062,0.0636,0.0632,0.0634,0.0655,0.0657,0.0661,0.0682,0.0695,0.0702,0.0698,0.0725,0.073,0.077,0.0784,0.0757,0.0758,0.0826,0.0828,0.0829,0.0848,0,0,0,0,0,0,0.0618,0.0619,0.0631,0.0631,0.0634,0.065,0.0656,0.0661,0.0681,0.0684,0.0713,0.0719,0.0726,0.0768,0.0771,0.0785,0.076,0.0825,0.0827,0.0829,0.0847,0.085,0.0854,0,0,0,0,0,0.0617,0.0623,0.0631,0.0633,0.0646,0.0651,0.0654,0.0671,0.0681,0.0693,0.0721,0.0719,0.0782,0.077,0.0774,0.0789,0.0824,0.0826,0.0829,0.0845,0.085,0.0854,0,0,0,0,0,0,0.0618,0.0627,0.0636,0.0644,0.0654,0.0657,0.0669,0.0679,0.0708,0.072,0.0733,0.0741,0.0781,0.0783,0.0769,0.0816,0.0801,0.0805,0.0813,0.0817,0.0821,0.0819,0.0761,0,0,0,0,0,0.0623,0.0633,0.064,0.0648,0.0654,0.0665,0.0674,0.0685,0.0704,0.0718,0.0738,0.0763,0.0789,0.0803,0.0825,0.0848,0.0855,0.086,0.0864,0.0867,0.0869,0.0908,0.0916,0.0837,0.0837,0.0837,0,0,0.0623,0.0631,0.0636,0.065,0.0659,0.0668,0.0673,0.0689,0.0703,0.0719,0.0755,0.078,0.08,0.0833,0.0849,0.0838,0.089,0.0869,0.0872,0.0873,0.0912,0.0919,0.0926,0.0839,0.0838,0.0838,0,0,0.0623,0.0638,0.0646,0.0655,0.0674,0.0682,0.0689,0.0705,0.0723,0.0755,0.0776,0.0814,0.0842,0.0866,0.0878,0.0914,0.0912,0.0918,0.0931,0.0969,0.0976,0.0982,0.0987,0.0994,0.0915,0.0915,0.0915,0,0.0631,0.0636,0.065,0.0659,0.0668,0.0688,0.0698,0.0715,0.0745,0.0763,0.0772,0.0837,0.0858,0.0899,0.0916,0.0922,0.0933,0.0911,0.0974,0.098,0.0986,0.099,0.0997,0.0916,0.0916,0.0916,0.0916,0,0.0627,0.0642,0.0646,0.0667,0.068,0.0691,0.0712,0.0739,0.0764,0.0781,0.0833,0.0868,0.091,0.0919,0.093,0.0981,0.0971,0.0977,0.096,0.0995,0.0997,0.1004,0.0918,0.0918,0.0917,0.0917,0,0,0.0625,0.0642,0.0648,0.0657,0.0685,0.0693,0.0725,0.0756,0.0781,0.082,0.0856,0.0908,0.0936,0.0953,0.0975,0.1004,0.1054,0.1009,0.101,0.1009,0.112,0.102,0.1018,0.1075,0.1077,0.1078,0.11,0,0.0625,0.0638,0.065,0.0669,0.0676,0.0706,0.0728,0.0762,0.0799,0.0841,0.0885,0.0931,0.0945,0.0976,0.1011,0.1054,0.1075,0.1046,0.1091,0.1092,0.0996,0.1024,0.1083,0.1105,0.1106,0.1107,0.1108,0,0.0616,0.063,0.0645,0.0667,0.0674,0.0694,0.0741,0.0764,0.0825,0.0857,0.0915,0.0951,0.1017,0.1019,0.1101,0.1084,0.1106,0.1123,0.1125,0.103,0.1005,0.1068,0.112,0.1119,0.1118,0.1118,0.1117,0,0.0599,0.0623,0.0637,0.0644,0.0676,0.07,0.0724,0.0776,0.0797,0.088,0.091,0.0987,0.1037,0.1087,0.1135,0.1129,0.1204,0.12,0.1121,0.1113,0.1188,0.1181,0.1247,0.1247,0.1247,0.1247,0.1247,0,0.058,0.0593,0.0634,0.0642,0.0661,0.0692,0.0725,0.0763,0.0818,0.0843,0.0924,0.0957,0.1061,0.1112,0.1146,0.1151,0.1219,0.1123,0.1118,0.1192,0.1187,0.1191,0.1184,0.1248,0.1247,0.1247,0.1247,0,0.0544,0.0574,0.059,0.0636,0.0651,0.0667,0.0712,0.0726,0.0795,0.0836,0.0865,0.0955,0.1024,0.1093,0.1175,0.1151,0.1174,0.1154,0.1215,0.1213,0.1049,0.1043,0.1063,0.1059,0.1057,0.1054,0.1052,0,0.0519,0.0527,0.0579,0.0586,0.0608,0.0639,0.0648,0.0712,0.0727,0.0818,0.0825,0.0916,0.0972,0.1005,0.1085,0.1128,0.1118,0.1108,0.1087,0.104,0.1033,0.1032,0.103,0.1048,0.1047,0.1047,0.1046,0,0.0472,0.0502,0.0517,0.0535,0.0554,0.0553,0.058,0.0587,0.0657,0.0735,0.0773,0.0816,0.0881,0.0949,0.099,0.1018,0.1107,0.1079,0.1085,0.1065,0.1023,0.1018,0.1019,0.1037,0.1038,0.1039,0.1039,0,0.0442,0.0437,0.0465,0.0473,0.0483,0.0456,0.0481,0.0501,0.0531,0.0645,0.0658,0.0766,0.0865,0.089,0.0929,0.095,0.0935,0.09,0.0914,0.0925,0.0873,0.0798,0.0739,0,0,0,0,0,0.0409,0.0397,0.0394,0.0393,0.039,0.0397,0.0422,0.0451,0.054,0.0542,0.0599,0.0659,0.0722,0.0778,0.0775,0.0856,0.0929,0.0845,0.0892,0.0984,0.0995,0.0946,0,0,0,0,0,0,0.0389,0.0384,0.0377,0.0319,0.0301,0.0284,0.0298,0.0349,0.0359,0.0468,0.0515,0.0603,0.0684,0.0728,0.0763,0.0778,0.0786,0.0918,0.0915,0.0978,0.0988,0.0997,0.0951,0,0,0,0,0]},{"header":{"parameterUnit":"m.s-1","parameterCategory":2,"la1":30.2991,"la2":30.254,"lo1":-89.0895,"lo2":-89.0444,"dy":0.0017,"dx":0.0017,"nx":28,"ny":28,"refTime":"2024-08-28T09:00:00:Z","depth":"4","parameterNumber":3,"parameterNumberName":"V-component_of_CURRENTS"},"data":[0,0,0,0,0,0,0,0,0,0,0,0,0,0,0,0,0,0,0,0,0,0,0,0,0,0,0,0,0,0,0,0,0,0,0,0,0,0,0,0,0,0,0,0,0,0,0,0,0,0,0,0,0,0,0,0,0,0,0.0144,0.0144,0,0.0151,0.0151,0.0151,0.0156,0.0156,0.0156,0.0156,0.0182,0.0183,0.0183,0,0,0,0,0,0,0,0,0,0,0,0,0,0.0125,0.0126,0.0144,0.0144,0.0144,0.0151,0.0151,0.0151,0.0156,0.0156,0.0156,0.0156,0.0182,0.0183,0.0183,0,0,0,0,0,0,0,0,0,0,0,0,0,0.0133,0.0126,0.0144,0.0147,0.0147,0.0151,0.0151,0.0151,0.0156,0.0156,0.0156,0.0156,0.0182,0.0183,0.0184,0.0189,0,0,0.0187,0.0187,0,0,0,0,0,0,0,0,0.0133,0.0134,0.0146,0.0147,0.0147,0.0152,0.0154,0.0165,0.0156,0.0153,0.0156,0.0156,0.0174,0.0175,0.0177,0.0191,0.0192,0.0187,0.0187,0.0188,0.0188,0,0,0,0,0,0,0,0.0132,0.0134,0.0147,0.0146,0.0147,0.0145,0.0146,0.0156,0.0164,0.0153,0.0154,0.0154,0.0174,0.0176,0.0177,0.0192,0.0187,0.0188,0.0188,0.0189,0.0215,0.0215,0,0,0,0,0,0,0.0131,0.0133,0.0147,0.0147,0.014,0.0145,0.0147,0.0151,0.0163,0.0165,0.0154,0.0154,0.0174,0.0176,0.0178,0.0195,0.0188,0.0189,0.0189,0.0215,0.0215,0.0215,0,0,0,0,0,0,0.0131,0.0133,0.0146,0.014,0.0141,0.0146,0.015,0.0151,0.0154,0.0163,0.0166,0.0157,0.0174,0.0177,0.0188,0.0196,0.0189,0.019,0.0215,0.0215,0.0215,0.0223,0,0,0,0,0,0,0.0131,0.0133,0.0134,0.014,0.0142,0.0151,0.015,0.0151,0.0154,0.0155,0.0166,0.0169,0.0174,0.0186,0.0189,0.0197,0.0191,0.0215,0.0215,0.0215,0.0223,0.0224,0.0224,0,0,0,0,0,0.013,0.0133,0.0134,0.0136,0.0144,0.0151,0.0152,0.0155,0.0154,0.0157,0.0164,0.0168,0.0189,0.0187,0.019,0.0199,0.0215,0.0215,0.0215,0.0223,0.0224,0.0224,0,0,0,0,0,0,0.0125,0.0134,0.0136,0.0141,0.0146,0.0152,0.0154,0.0156,0.0162,0.0164,0.0171,0.0174,0.0185,0.019,0.0187,0.0206,0.0202,0.0203,0.0207,0.0208,0.0209,0.021,0.0192,0,0,0,0,0,0.0125,0.0131,0.0138,0.0142,0.0145,0.0149,0.0152,0.0155,0.0161,0.0164,0.0172,0.018,0.0188,0.0196,0.0203,0.0215,0.0208,0.0222,0.0223,0.0223,0.0226,0.0219,0.0219,0.0216,0.0216,0.0216,0,0,0.0125,0.013,0.0133,0.0142,0.0146,0.0155,0.0151,0.0157,0.0167,0.0167,0.0181,0.0183,0.0191,0.0203,0.0209,0.0209,0.0219,0.0223,0.0224,0.0226,0.0219,0.022,0.022,0.0216,0.0216,0.0216,0,0,0.0128,0.0132,0.0139,0.0145,0.0152,0.0157,0.016,0.0167,0.0172,0.0183,0.0185,0.019,0.0206,0.0211,0.0217,0.0226,0.0221,0.0229,0.0238,0.0232,0.0232,0.0232,0.0215,0.0214,0.0232,0.0232,0.0232,0,0.0126,0.0139,0.0141,0.015,0.0159,0.016,0.0172,0.0177,0.0187,0.0193,0.019,0.0206,0.021,0.0226,0.0227,0.0229,0.0219,0.0235,0.0232,0.0233,0.0233,0.0216,0.0214,0.0232,0.0232,0.0232,0.0232,0,0.0138,0.0148,0.0153,0.0168,0.0176,0.0187,0.0195,0.0203,0.0208,0.0211,0.0223,0.0224,0.0235,0.0235,0.0235,0.0241,0.0232,0.0232,0.023,0.0233,0.0215,0.0213,0.0233,0.0233,0.0233,0.0232,0,0,0.0134,0.0157,0.0159,0.0174,0.0189,0.0199,0.0214,0.0229,0.0242,0.0243,0.0258,0.0261,0.0256,0.0262,0.026,0.0253,0.0239,0.0243,0.0243,0.0226,0.0216,0.0209,0.0206,0.0239,0.0239,0.0239,0.02,0,0.0145,0.0167,0.0177,0.0203,0.0218,0.0229,0.0245,0.0257,0.0265,0.0278,0.0273,0.0286,0.0269,0.0277,0.0265,0.0253,0.0236,0.0249,0.0216,0.0214,0.0208,0.0205,0.0238,0.0199,0.0198,0.0198,0.0198,0,0.0156,0.0171,0.0198,0.023,0.0237,0.0254,0.0284,0.0299,0.0312,0.0318,0.0321,0.0317,0.0313,0.0297,0.0266,0.0275,0.0244,0.0225,0.0223,0.0214,0.0205,0.0197,0.0194,0.0194,0.0195,0.0195,0.0195,0,0.0159,0.0189,0.0212,0.0223,0.0255,0.0273,0.0292,0.0311,0.0333,0.0346,0.0362,0.0347,0.0352,0.0313,0.0272,0.027,0.0229,0.0223,0.0182,0.0181,0.0195,0.0195,0.019,0.019,0.019,0.019,0.019,0,0.017,0.0191,0.0218,0.0233,0.0268,0.0285,0.0326,0.034,0.0367,0.0398,0.0385,0.0402,0.0356,0.033,0.028,0.0227,0.0234,0.0182,0.0173,0.0198,0.0199,0.0193,0.0194,0.0189,0.0189,0.0189,0.019,0,0.0173,0.019,0.0221,0.0256,0.0272,0.0298,0.0355,0.0386,0.0405,0.0445,0.0453,0.0445,0.0412,0.0356,0.0295,0.0247,0.0193,0.0167,0.0193,0.0187,0.0143,0.0145,0.012,0.0119,0.0119,0.0118,0.0118,0,0.0179,0.0194,0.0235,0.026,0.0281,0.0326,0.0365,0.0402,0.0438,0.0474,0.0495,0.0475,0.0459,0.0364,0.03,0.02,0.0182,0.0146,0.0144,0.0143,0.0137,0.0139,0.0141,0.0117,0.0117,0.0117,0.0117,0,0.0191,0.0203,0.0225,0.0272,0.0317,0.0372,0.0427,0.0454,0.0502,0.0519,0.0529,0.0486,0.0445,0.0367,0.0289,0.0217,0.0168,0.0141,0.0141,0.0139,0.014,0.0135,0.0137,0.0115,0.0116,0.0116,0.0116,0,0.0196,0.0214,0.0242,0.0286,0.0342,0.0402,0.0432,0.0479,0.0515,0.0548,0.0548,0.0505,0.048,0.0375,0.0307,0.0235,0.0212,0.0179,0.0177,0.0178,0.0206,0.0216,0.0206,0,0,0,0,0,0.02,0.0224,0.0261,0.0309,0.0363,0.0401,0.0471,0.0499,0.0542,0.055,0.055,0.0511,0.0416,0.0378,0.0304,0.0292,0.0196,0.0201,0.0156,0.0107,0.0109,0.0131,0,0,0,0,0,0,0.0205,0.0236,0.0257,0.0322,0.0359,0.0429,0.0476,0.0506,0.0512,0.0535,0.0486,0.0475,0.0383,0.0451,0.0294,0.0276,0.0233,0.0163,0.0161,0.0106,0.0108,0.0109,0.0133,0,0,0,0,0]}]]